Regional Weather Roundup
Issued by NWS Goodland, KS

Home | Current Version | Previous Version | Graphics & Text | Print | Product List | Glossary On
Versions: 1 2 3 4 5 6 7 8 9 10 11 12 13 14 15 16 17 18 19 20 21 22 23 24 25 26 27 28 29 30 31 32 33 34 35 36 37 38 39 40 41 42 43 44 45 46 47 48 49 50
665
ASUS43 KGLD 241059
RWRGLD

GOODLAND FORECAST AREA HOURLY WEATHER ROUNDUP
NATIONAL WEATHER SERVICE GOODLAND KS
400 AM MST TUE JAN 24 2017

...OFFICIAL OBSERVATIONS...

CITY           SKY/WX    TMP DP  RH WIND       PRES   REMARKS
GOODLAND KS    CLOUDY    29  28  96 NW12      29.41F WCI  19
HILL CITY KS   CLEAR     31  31 100 E10       29.48F
IMPERIAL NEB   CLOUDY    31  29  92 NE6       29.51R
MCCOOK NEB     CLOUDY    32  31  96 E12       29.51R FOG
AKRON CO       CLOUDY    29  28  96 NE16      29.45F FOG     WCI  17
BURLINGTON CO  CLOUDY    31  28  89 NW14      29.43S
LIMON CO       CLOUDY    29  26  89 NW10      29.46S WCI  20
$$

...UNOFFICIAL OBSERVATIONS...

CITY           SKY/WX    TMP DP  RH WIND       PRES   REMARKS
LENORA KS        N/A     31  32 100 E7          N/A
NORTON KS      CLOUDY    34  28  80 E12       29.49S
SHARON SPRINGS   N/A     33  29  86 CALM        N/A
TRENTON NEB      N/A     30  32 100 E7          N/A
KIT CARSON CO    N/A     32  28  84 MISG        N/A
$$




USA.gov is the U.S. government's official web portal to all federal, state and local government web resources and services.